sat.trackr.live / text

‹ back to catalog

STARLINK-6058

NORAD 56797 · 2023-078AG

PAYLOAD ACTIVE UNKNOWN

§ Identity

Operator
Country
US
Launch date
2023-05-31
Launch site
AFWTR
Launch vehicle
Mass (kg)
RCS (m²)

Purposes: comms

External: N2YO · Heavens-Above · Gunter

§ Orbital elements

Epoch: 2026-09-20T16:00:01.999584Z

Period
96.11 min
Inclination
70.0010°
Eccentricity
0.0003348
Mean motion
14.98304835 rev/d
Perigee alt
569.8 km
Apogee alt
574.5 km
Semi-major
6,950.3 km
B*
4.0540e-3
RAAN
213.0152°
Arg perigee
268.4763°
Mean anomaly
15.6055°
Rev number
577

§ Raw data

STARLINK-60581 56797U 23078AG  26263.66668981  .00048584  00000+0  40540-2 0  99962 56797  70.0010 213.0152 0003348 268.4763  15.6055 14.98304835  5778

JSON: /api/v1/satellites/56797 · /tle

For live sub-satellite position, see the globe view (requires WebGL).

§ Visibility from observer

Set your observer location to see the next 7 days of passes ≥ 10°. The values pass through the URL so the page stays shareable.

No JS? Fill the form by hand. The geolocation button needs JavaScript.